Carmi, IL

1:59 PM CDT on April 27, 2017 (GMT -0500)
Carmi Municipal

Weather History for KCUL - March, 2014

Change the Weather History Date:

Friday, March 28, 2014

  Actual Average (KEHR) Record (KEHR)
Temperature  
Mean Temperature 53 °F -  
Max Temperature 60 °F 65 °F 83 °F (1985)
Min Temperature 46 °F 41 °F 11 °F (1947)
Degree Days  
Heating Degree Days 12    
Growing Degree Days 3 (Base 50)    
Moisture  
Dew Point 46 °F    
Average Humidity 76    
Maximum Humidity 95    
Minimum Humidity 57    
Precipitation  
Precipitation 0.29 in - - ()
Sea Level Pressure  
Sea Level Pressure 29.95 in    
Wind  
Wind Speed 14 mph (NW)    
Max Wind Speed 23 mph    
Max Gust Speed 32 mph    
Visibility 10 miles    
Events Rain , Thunderstorm    
Averages and records for this station are not official NWS values.
T = Trace of Precipitation, MM = Missing Value Source: NWS Daily Summary

Daily Weather History Graph

Daily Weather History Graph

Search for Another Location

Airport or City:

Trip Planner

Search our weather history database for the weather conditions in past years. The results will help you decide how hot, cold, wet, or windy it might be!

Date:

Astronomy

Mar. 28, 2014 Rise Set
Actual Time 6:43 AM CDT 7:11 PM CDT
Civil Twilight 6:17 AM CDT 7:38 PM CDT
Nautical Twilight 5:46 AM CDT 8:09 PM CDT
Astronomical Twilight 5:14 AM CDT 8:41 PM CDT
Moon 5:12 AM CDT (3/28) 5:09 PM CDT (3/28)
Length of Visible Light 13h 21m
Length of Day
12h 28m
Waning Crescent, 6% of the Moon is Illuminated
Mar 28
Waning Crescent
Mar 30
New
Apr 7
First Quarter
Apr 15
Full
Apr 22
Last Quarter

Hourly Weather History & Observations

Time (CDT) Temp. Dew Point Humidity Pressure Visibility Wind Dir Wind Speed Gust Speed Precip Events Conditions
12:15 AM 54.5 °F 50.2 °F 85% 29.76 in 10.0 mi South 20.7 mph 25.3 mph N/A   Mostly Cloudy
12:30 AM 54.5 °F 50.2 °F 85% 29.76 in 10.0 mi South 21.9 mph 29.9 mph N/A   Mostly Cloudy
12:55 AM 54.9 °F 50.5 °F 85% 29.76 in 10.0 mi South 20.7 mph 25.3 mph N/A   Mostly Cloudy
1:15 AM 55.2 °F 50.9 °F 85% 29.76 in 10.0 mi South 23.0 mph 27.6 mph N/A Thunderstorm Overcast
1:35 AM 55.4 °F 51.3 °F 86% 29.82 in 5.0 mi SW 11.5 mph 29.9 mph 0.08 in Rain , Thunderstorm Heavy Thunderstorms and Rain
1:55 AM 54.7 °F 51.8 °F 90% 29.77 in 5.0 mi South 18.4 mph 25.3 mph 0.18 in Rain , Thunderstorm Rain
2:15 AM 55.4 °F 51.8 °F 88% 29.75 in 4.0 mi South 21.9 mph 32.2 mph 0.04 in Rain , Thunderstorm Rain
2:35 AM 54.5 °F 52.0 °F 91% 29.74 in 10.0 mi South 16.1 mph - 0.05 in   Mostly Cloudy
2:55 AM 54.9 °F 52.2 °F 91% 29.76 in 10.0 mi SSW 11.5 mph - 0.05 in Thunderstorm Scattered Clouds
3:15 AM 54.9 °F 52.2 °F 91% 29.76 in 10.0 mi SSW 12.7 mph - N/A   Mostly Cloudy
3:35 AM 55.4 °F 52.2 °F 89% 29.77 in 10.0 mi South 11.5 mph - N/A   Overcast
3:55 AM 55.4 °F 52.7 °F 91% 29.78 in 10.0 mi South 12.7 mph - N/A   Overcast
4:15 AM 54.1 °F 52.3 °F 94% 29.78 in 10.0 mi South 10.4 mph - N/A   Mostly Cloudy
4:35 AM 55.4 °F 53.8 °F 94% 29.79 in 10.0 mi South 10.4 mph - N/A   Mostly Cloudy
4:55 AM 56.5 °F 54.5 °F 93% 29.79 in 10.0 mi South 10.4 mph - N/A   Mostly Cloudy
5:15 AM 55.9 °F 54.5 °F 95% 29.81 in 10.0 mi SW 5.8 mph - N/A   Mostly Cloudy
5:35 AM 56.3 °F 54.7 °F 94% 29.82 in 10.0 mi SW 9.2 mph - N/A   Overcast
5:55 AM 55.2 °F 50.5 °F 84% 29.84 in 10.0 mi West 16.1 mph 26.5 mph N/A   Overcast
6:15 AM 53.1 °F 47.3 °F 81% 29.86 in 10.0 mi WNW 12.7 mph 26.5 mph N/A   Overcast
6:35 AM 50.7 °F 46.0 °F 84% 29.88 in 10.0 mi WNW 17.3 mph 24.2 mph N/A   Overcast
7:15 AM 47.3 °F 42.8 °F 84% 29.92 in 10.0 mi WNW 12.7 mph 17.3 mph N/A   Scattered Clouds
7:35 AM 46.9 °F 42.1 °F 83% 29.94 in 10.0 mi WNW 10.4 mph 18.4 mph N/A   Clear
7:55 AM 47.3 °F 41.2 °F 79% 29.95 in 10.0 mi WNW 13.8 mph 18.4 mph N/A   Clear
8:15 AM 47.3 °F 40.8 °F 78% 29.98 in 10.0 mi WNW 15.0 mph 19.6 mph N/A   Clear
8:35 AM 47.5 °F 41.2 °F 79% 29.98 in 10.0 mi WNW 16.1 mph 19.6 mph N/A   Clear
8:55 AM 48.0 °F 41.4 °F 78% 29.99 in 10.0 mi NW 15.0 mph - N/A   Clear
9:15 AM 48.2 °F 41.4 °F 77% 30.00 in 10.0 mi NW 15.0 mph 19.6 mph N/A   Clear
9:35 AM 48.6 °F 41.4 °F 76% 30.02 in 10.0 mi NW 12.7 mph 17.3 mph N/A   Scattered Clouds
9:55 AM 49.1 °F 41.9 °F 76% 30.01 in 10.0 mi NW 13.8 mph - N/A   Clear
10:15 AM 50.0 °F 42.6 °F 76% 30.02 in 10.0 mi NNW 12.7 mph - N/A   Scattered Clouds
10:35 AM 50.4 °F 42.3 °F 74% 30.03 in 10.0 mi NW 10.4 mph - N/A   Clear
10:55 AM 50.7 °F 42.1 °F 72% 30.03 in 10.0 mi NW 6.9 mph - N/A   Scattered Clouds
11:15 AM 51.6 °F 42.4 °F 71% 30.03 in 10.0 mi NW 9.2 mph - N/A   Clear
11:35 AM 52.9 °F 43.0 °F 69% 30.03 in 10.0 mi NW 8.1 mph - N/A   Clear
11:55 AM 53.4 °F 42.6 °F 67% 30.03 in 10.0 mi NW 4.6 mph - N/A   Clear
12:15 PM 54.3 °F 43.9 °F 68% 30.03 in 10.0 mi NNW 11.5 mph - N/A   Clear
12:35 PM 55.6 °F 44.8 °F 67% 30.02 in 10.0 mi NW 11.5 mph 16.1 mph N/A   Clear
12:55 PM 55.8 °F 43.5 °F 63% 30.03 in 10.0 mi NW 6.9 mph - N/A   Clear
1:15 PM 56.3 °F 44.1 °F 64% 30.03 in 10.0 mi North 6.9 mph - N/A   Clear
1:35 PM 56.7 °F 44.6 °F 64% 30.02 in 10.0 mi NNW 10.4 mph - N/A   Clear
1:55 PM 57.0 °F 44.4 °F 63% 30.03 in 10.0 mi NNW 10.4 mph - N/A   Clear
2:15 PM 57.4 °F 44.2 °F 62% 30.02 in 10.0 mi NNE 9.2 mph - N/A   Clear
2:35 PM 58.3 °F 45.3 °F 62% 30.02 in 10.0 mi North 6.9 mph 16.1 mph N/A   Clear
2:55 PM 58.3 °F 44.4 °F 60% 30.01 in 10.0 mi North 6.9 mph - N/A   Clear
3:15 PM 58.8 °F 44.4 °F 59% 30.00 in 10.0 mi North 11.5 mph 16.1 mph N/A   Clear
3:35 PM 59.2 °F 44.6 °F 58% 30.01 in 10.0 mi North 8.1 mph - N/A   Clear
3:55 PM 59.2 °F 43.9 °F 57% 30.00 in 10.0 mi North 4.6 mph - N/A   Clear
4:15 PM 59.9 °F 44.4 °F 57% 29.99 in 10.0 mi NNE 8.1 mph - N/A   Clear
4:35 PM 60.1 °F 45.0 °F 57% 29.99 in 10.0 mi North 9.2 mph - N/A   Clear
4:55 PM 59.7 °F 44.6 °F 57% 30.00 in 10.0 mi North 8.1 mph - N/A   Clear
5:15 PM 59.2 °F 44.8 °F 59% 30.00 in 10.0 mi North 9.2 mph - N/A   Clear
5:35 PM 58.3 °F 45.1 °F 62% 30.00 in 10.0 mi NNE 10.4 mph - N/A   Clear
5:55 PM 56.8 °F 45.1 °F 65% 30.01 in 10.0 mi North 9.2 mph - N/A   Clear
6:15 PM 56.5 °F 45.1 °F 66% 30.02 in 10.0 mi North 8.1 mph - N/A   Clear
6:35 PM 55.2 °F 45.3 °F 69% 30.03 in 10.0 mi North 9.2 mph - N/A   Clear
6:55 PM 54.5 °F 44.8 °F 70% 30.04 in 10.0 mi North 9.2 mph - N/A   Clear
7:15 PM 53.6 °F 44.4 °F 71% 30.05 in 10.0 mi North 8.1 mph - N/A   Mostly Cloudy
7:35 PM 52.9 °F 44.1 °F 72% 30.04 in 10.0 mi NNW 9.2 mph - N/A   Scattered Clouds
7:55 PM 52.7 °F 43.7 °F 71% 30.05 in 10.0 mi North 9.2 mph - N/A   Clear
8:15 PM 52.0 °F 43.7 °F 73% 30.05 in 10.0 mi North 12.7 mph - N/A   Clear
8:35 PM 51.1 °F 43.3 °F 75% 30.05 in 10.0 mi North 11.5 mph - N/A   Clear
8:55 PM 50.9 °F 43.2 °F 75% 30.05 in 10.0 mi North 11.5 mph - N/A   Clear
9:15 PM 50.4 °F 43.3 °F 77% 30.06 in 10.0 mi North 10.4 mph - N/A   Clear
9:35 PM 50.0 °F 43.0 °F 77% 30.06 in 10.0 mi North 10.4 mph - N/A   Clear
9:55 PM 49.6 °F 43.0 °F 78% 30.05 in 10.0 mi North 9.2 mph - N/A   Clear
10:15 PM 49.3 °F 43.0 °F 79% 30.05 in 10.0 mi North 10.4 mph - N/A   Scattered Clouds
10:35 PM 49.1 °F 42.8 °F 79% 30.05 in 10.0 mi North 10.4 mph - N/A   Scattered Clouds
10:55 PM 48.7 °F 42.8 °F 80% 30.03 in 10.0 mi North 12.7 mph - N/A   Mostly Cloudy
11:15 PM 48.7 °F 42.6 °F 79% 30.04 in 10.0 mi North 13.8 mph 18.4 mph N/A Rain Light Rain
11:30 PM 48.2 °F 42.8 °F 82% 30.03 in 10.0 mi North 15.0 mph - N/A Rain , Thunderstorm Light Thunderstorms and Rain
11:55 PM 47.5 °F 43.3 °F 86% 30.11 in 4.0 mi SW 10.4 mph - 0.06 in Rain , Thunderstorm Heavy Thunderstorms and Rain